Lid_Strength_Index
4 5 5 5 4 6 6 5 5 5 6 5 5 5 6 5 5 8 10 10 11 12 12 11 10 13 14 14 16 14 14 12 12 13 13 13 13 12 13 12 13 13 14 15 14 16 16 8 8 11 9 6 7 6
4 5 5 4 6 6 6 5 5 5 5 5 5 5 6 5 5 6 10 9 8 11 12 9 9 9 10 11 14 14 14 13 11 12 14 14 15 14 15 16 10 14 11 13 13 13 9 7 8 6 6 7 7 7
4 4 5 6 6 6 5 4 5 5 4 5 5 5 5 5 5 6 9 8 9 12 12 12 12 9 8 8 8 13 12 10 11 12 14 14 15 13 16 15 12 10 8 12 11 9 8 7 6 5 5 6 5 5
4 5 5 5 5 5 4 4 4 4 5 5 5 5 5 5 5 5 7 8 10 12 14 13 8 10 8 8 8 8 9 9 10 11 13 13 14 13 14 13 13 11 10 11 11 9 8 7 6 6 5 5 5 5
4 4 4 4 4 4 4 4 4 4 4 4 4 4 4 4 4 6 7 6 8 11 13 12 10 9 8 9 9 8 9 11 11 11 11 13 10 12 13 12 13 10 11 11 12 8 8 8 6 5 6 6 5 5
3 3 4 4 4 4 4 4 4 4 4 4 3 3 3 3 4 8 11 9 7 7 11 14 11 9 9 9 9 9 9 11 10 9 10 9 7 10 14 14 10 8 7 7 9 7 7 6 5 5 6 5 5 5
4 4 4 4 4 4 4 4 4 4 3 3 3 3 3 3 7 9 11 6 5 7 10 13 14 9 8 10 10 11 10 11 10 12 11 11 9 9 11 13 9 8 7 7 6 6 7 6 7 5 5 5 4 4
4 4 4 3 3 3 3 3 3 3 3 3 3 4 4 3 5 9 7 3 4 6 9 12 13 12 4 9 12 10 11 11 10 10 10 11 10 11 14 10 9 8 6 6 6 5 5 5 5 5 4 5 5 6
4 4 3 3 3 3 3 3 3 3 3 3 3 4 7 9 11 9 3 2 5 8 11 10 13 15 5 7 8 9 8 11 9 11 11 9 11 12 9 9 8 8 7 8 6 5 5 6 6 5 5 5 7 7
4 4 4 3 3 3 3 3 3 2 2 2 6 9 11 9 3 2 6 9 9 7 8 11 9 13 9 8 8 8 8 10 13 10 8 10 11 8 7 7 7 7 6 7 7 8 7 7 6 6 6 5 6 6
3 3 3 3 3 2 2 2 1 1 3 7 9 10 7 2 6 6 9 9 9 10 8 9 11 13 9 10 10 9 10 10 13 11 11 12 13 9 7 6 7 8 5 5 5 5 5 5 6 6 5 5 5 5
3 3 2 2 1 1 1 1 1 6 7 6 6 3 4 6 7 9 11 9 10 11 10 11 11 10 11 7 10 9 10 10 14 9 11 14 11 7 6 6 6 5 5 5 4 5 5 4 4 5 5 5 5 4
1 1 1 1 1 1 1 1 1 2 3 6 7 7 7 8 11 12 13 11 10 10 9 9 11 10 10 8 9 9 12 12 8 12 13 12 8 6 6 6 6 4 4 4 4 4 4 4 4 4 4 4 4 4
1 1 1 1 1 1 0 0 0 2 6 9 10 11 10 11 10 10 11 10 8 8 7 7 9 10 9 9 9 12 10 10 13 14 13 10 7 6 6 5 5 5 5 5 5 4 4 4 4 4 3 3 4 5
0 0 0 0 -0 0 -0 -0 0 4 5 7 7 11 10 9 9 8 8 7 7 6 7 8 8 8 10 10 9 10 12 14 13 13 10 8 6 6 6 5 5 5 5 5 4 4 4 4 4 4 4 4 5 5
-0 0 2 -1 -1 -1 -1 -1 1 2 4 6 6 8 9 9 9 8 7 7 5 6 5 7 9 10 11 10 12 12 13 14 12 9 7 7 7 5 6 5 5 4 4 4 4 4 4 4 4 4 3 4 5 5
0 4 -1 -1 -2 -1 -1 1 3 5 6 7 8 7 9 8 9 8 7 6 4 6 9 9 11 12 11 12 12 10 12 11 9 7 6 6 6 5 6 6 5 4 5 5 5 4 4 3 3 4 5 5 4 4
4 2 -1 -1 1 1 2 2 5 6 8 8 9 8 8 7 7 7 6 5 6 7 7 9 9 12 13 13 12 10 9 8 8 6 6 5 5 5 5 6 7 6 5 5 4 5 5 4 4 4 4 5 5 5
3 1 -1 0 2 5 7 7 7 9 8 7 7 7 7 6 6 5 5 5 5 5 6 8 10 12 12 10 10 10 8 7 7 7 7 6 6 7 6 6 7 8 6 5 5 5 5 4 4 4 4 4 5 5
-0 -0 0 0 2 5 6 6 5 8 9 8 7 8 8 7 6 5 5 5 5 6 8 9 9 8 8 7 7 8 7 6 6 7 7 7 7 6 6 6 8 8 6 5 5 7 4 4 4 4 4 5 5 6
3 2 1 2 4 5 6 6 6 6 7 8 6 8 7 5 6 6 7 5 7 8 9 8 8 8 7 7 8 8 7 7 7 8 7 7 6 6 6 7 6 6 6 5 5 5 5 5 4 4 4 5 5 5
4 1 3 3 7 7 9 7 8 7 8 7 6 6 8 8 8 7 5 8 8 8 7 7 8 8 8 8 8 8 8 8 8 8 8 8 7 7 7 7 5 6 5 5 4 5 5 4 4 4 5 6 7 6
2 3 5 6 9 9 8 5 8 8 9 8 7 9 9 10 9 6 8 9 8 7 7 7 8 7 8 7 7 8 9 9 10 9 8 8 7 7 6 6 5 5 4 4 4 4 4 8 7 6 6 6 7 8
2 6 8 9 8 12 7 9 8 9 8 9 10 11 10 9 8 9 9 9 10 10 10 8 7 8 8 8 8 9 9 9 9 9 9 8 7 7 7 6 4 4 4 4 4 4 4 5 7 6 6 7 7 7
11 11 11 15 9 9 9 9 9 10 10 10 10 9 11 10 11 12 12 11 10 8 7 7 7 8 9 9 8 7 6 9 10 10 9 8 7 7 7 6 5 5 4 4 4 5 5 5 5 5 6 6 7 7
14 8 10 9 10 9 10 11 11 11 11 11 11 10 9 10 12 13 13 10 9 8 8 9 9 9 8 8 8 7 7 6 9 10 9 8 7 7 7 7 6 5 4 4 4 5 6 5 5 6 6 7 9 6
10 10 9 7 9 8 10 9 9 10 11 12 11 10 11 13 13 11 9 8 9 8 7 7 7 8 9 8 7 6 6 5 6 7 7 7 7 6 6 7 7 5 3 3 4 4 5 5 5 5 5 5 6 7
8 7 11 10 10 9 11 11 11 11 10 9 9 12 12 12 12 10 10 8 7 7 6 6 6 6 6 7 7 6 6 6 5 5 6 7 6 6 5 5 5 9 3 3 4 4 5 5 5 5 5 6 6 6
9 8 8 10 10 10 10 10 10 9 8 8 10 11 11 10 9 10 8 7 5 6 7 6 6 5 5 5 5 6 6 6 7 7 8 8 8 7 5 5 4 3 4 5 10 7 4 4 4 4 4 5 6 6
9 8 10 9 10 11 9 8 8 7 6 7 7 8 9 9 8 5 5 5 5 5 5 5 5 5 6 6 6 6 5 5 5 6 7 8 8 6 5 4 4 4 4 5 5 6 9 4 5 3 4 5 6 7
8 8 9 8 9 8 7 7 6 6 6 7 7 8 8 8 6 5 4 4 4 4 5 5 6 5 5 5 6 6 6 4 4 4 4 6 6 5 4 4 3 4 4 4 4 3 4 3 3 4 5 6 7 7
9 9 10 10 9 7 7 8 8 8 8 8 9 7 7 8 9 7 5 5 5 6 7 5 5 5 4 5 5 5 8 5 4 5 5 5 5 4 3 3 3 3 3 3 4 4 3 4 4 5 6 6 6 7
9 9 9 9 9 9 8 8 8 9 9 9 8 8 8 8 10 7 4 4 5 6 5 4 3 3 3 4 4 5 7 6 8 9 9 8 8 6 3 2 2 3 3 4 3 3 4 5 5 6 6 6 7 7